User: anonymous   Login
Location: Unspecified
(0.0000°N, 0.0000°E)
Time: 17:13:38
(UTC+00:00)
Language:

USA 252 - Orbit

View from above orbital plane
View from above orbital plane
View from above satellite
View from above satellite

Ground track
Ground track

The orbit data is extracted from the following two-line orbital elements,

1 39751U 14027A   19359.72987517 0.00000000  00000-0  00000-0 0    05
2 39751   2.5357 166.7102 0003791 338.8112  21.1746  1.00270000    09
Epoch (UTC): 25 December 2019 17:31:01
Eccentricity: 0.0003791
inclination: 2.5357°
perigee height: 35771 km
apogee height: 35803 km
right ascension of ascending node: 166.7102°
argument of perigee: 338.8112°
revolutions per day: 1.00270000
mean anomaly at epoch: 21.1746°
orbit number at epoch: 0

The dashed part of the orbit path shows where the satellite is in the earth's shadow,  

DLR